Flag for Pakistan

Past Weather in Mianwali, Pakistan — Yesterday and Last 2 Weeks

Now
99 °F

Haze.


Feels Like: 98 °F
Forecast: 103 / 80 °F
Wind: 5 mph from South

Location: Peshawar Airport
Current Time: Sep 19, 2020 at 5:11:11 pm
Latest Report: Sep 19, 2020 at 5:00 pm
Visibility: 2 mi
Pressure29.59 "Hg
Humidity: 27%
Dew Point: 59 °F
Location of MianwaliLocation

Past Weather in Mianwali — Graph

°F

Mianwali Temperature Yesterday

Maximum temperature yesterday: 99 °F (at 2:00 pm)
Minimum temperature yesterday: 77 °F (at 7:00 am)
Average temperature yesterday: 88 °F

High & Low Weather Summary for the Past Weeks

 TemperatureHumidityPressure
High100 °F (Sep 19, 3:00 pm)88% (Sep 7, 6:00 am)29.83 "Hg (Sep 7, 6:00 am)
Low72 °F (Sep 7, 5:00 am)31% (Sep 19, 3:00 pm)29.56 "Hg (Sep 6, 3:55 pm)
Average86 °F58%29.69 "Hg
* Reported Sep 4 4:00 pm — Sep 19 4:00 pm, Mianwali. Weather by CustomWeather, © 2020

Note: Actual official high and low records may vary slightly from our data, if they occured in-between our weather recording intervals... More about our weather records

Mianwali Weather History for the Previous 24 Hours

Scroll right to see more
 ConditionsComfort  
Time TempWeatherWind HumidityBarometerVisibility
4:00 pm
Sat, Sep 19
100 °FHaze.5 mph31%29.62 "Hg3 mi
3:30 pm100 °FHaze.5 mph31%29.62 "Hg3 mi
3:00 pm100 °FHaze.5 mph31%29.62 "Hg3 mi
2:30 pm97 °FHaze.5 mph34%29.65 "Hg3 mi
2:00 pm97 °FHaze.5 mph34%29.65 "Hg3 mi
1:00 pm97 °FSunny.5 mph34%29.65 "Hg3 mi
12:00 pm97 °FSunny.5 mph32%29.68 "Hg2 mi
11:30 am93 °FSunny.5 mph44%29.71 "Hg2 mi
11:00 am93 °FSunny.5 mph44%29.71 "Hg2 mi
10:30 am91 °FSunny.5 mph49%29.71 "Hg4 mi
10:00 am91 °FSunny.5 mph49%29.71 "Hg4 mi
9:00 am88 °FHaze.5 mph55%29.71 "Hg3 mi
8:30 am81 °FHaze.5 mph62%29.68 "Hg3 mi
8:00 am81 °FHaze.5 mph62%29.68 "Hg3 mi
7:30 am77 °FHaze.5 mph69%29.68 "Hg3 mi
7:00 am77 °FHaze.5 mph69%29.68 "Hg3 mi
6:00 am77 °FHaze.5 mph69%29.65 "Hg3 mi
5:00 am77 °FHaze.5 mph65%29.62 "Hg3 mi
4:00 am77 °FHaze.5 mph65%29.62 "Hg3 mi
3:30 am79 °FHaze.5 mph65%29.62 "Hg3 mi
3:00 am79 °FHaze.5 mph65%29.62 "Hg3 mi
2:00 am79 °FHaze.5 mph65%29.62 "Hg3 mi
1:00 am81 °FHaze.5 mph62%29.62 "Hg3 mi
12:30 am81 °FHaze.5 mph62%29.62 "Hg3 mi
12:00 am81 °FHaze.5 mph62%29.62 "Hg3 mi
11:30 pm
Fri, Sep 18
82 °FHaze.5 mph51%29.62 "Hg3 mi
11:00 pm82 °FHaze.5 mph51%29.62 "Hg3 mi
10:30 pm86 °FHaze.5 mph43%29.59 "Hg3 mi
10:00 pm86 °FHaze.5 mph43%29.59 "Hg3 mi
9:00 pm86 °FHaze.5 mph43%29.59 "Hg3 mi
8:30 pm86 °FHaze.5 mph43%29.59 "Hg3 mi
8:00 pm86 °FHaze.5 mph43%29.59 "Hg3 mi
7:00 pm88 °FHaze.7 mph40%29.59 "Hg3 mi
6:00 pm91 °FHaze.No wind41%29.59 "Hg3 mi
5:00 pm95 °FHaze.5 mph36%29.59 "Hg4 mi
Weather by CustomWeather, © 2020

See weather overview